SAS925 EKCH-KIAD

Flight info

Callsign SAS925
Flight time N/A
Altitude 40000
Route GOLGA3A GOLGA DCT KRM DCT VALDI/M085F380 DCT 62N010W 61N020W/M084F400 5930N03000W 58N040W 5530N05000W DCT KODIK/N0489F400 DCT ANCER DCT ART DCT PSB WAYNZ1
Aircraft A359/H-SDE2E3GHIJ3J4J5LM1ORWXY/LB1D1

Departure

Time N/A
Airport Copenhagen Kastrup Airport (EKCH)

Arrival

Time 2026-05-07 20:17
Airport Washington Dulles International Airport (KIAD)
Time Latitude Longitude Altitude Speed Heading
2026-05-07 18:56 46.07443 -73.20983 39772 ft 450 kts 227°
2026-05-07 18:56 46.05215 -73.24146 39770 ft 450 kts 227°
2026-05-07 18:57 46.00786 -73.30422 39774 ft 449 kts 227°
2026-05-07 18:57 45.96329 -73.36722 39779 ft 449 kts 227°
2026-05-07 18:58 45.91873 -73.43006 39782 ft 449 kts 227°
2026-05-07 18:58 45.87408 -73.49288 39781 ft 449 kts 227°
2026-05-07 18:59 45.82938 -73.55562 39786 ft 448 kts 227°
2026-05-07 18:59 45.78478 -73.61807 39792 ft 448 kts 227°
2026-05-07 19:00 45.74022 -73.68030 39800 ft 447 kts 227°
2026-05-07 19:00 45.69568 -73.74238 39805 ft 447 kts 227°
2026-05-07 19:01 45.65103 -73.80446 39812 ft 446 kts 227°
2026-05-07 19:01 45.60682 -73.86578 39813 ft 446 kts 227°
2026-05-07 19:02 45.56233 -73.92735 39811 ft 445 kts 227°
2026-05-07 19:02 45.51783 -73.98879 39811 ft 444 kts 227°
2026-05-07 19:03 45.47344 -74.04994 39810 ft 444 kts 227°
2026-05-07 19:03 45.42901 -74.11100 39814 ft 444 kts 227°
2026-05-07 19:04 45.38455 -74.17195 39817 ft 443 kts 227°
2026-05-07 19:04 45.34010 -74.23277 39821 ft 443 kts 227°
2026-05-07 19:05 45.29567 -74.29342 39824 ft 443 kts 227°
2026-05-07 19:05 45.25146 -74.35361 39825 ft 443 kts 227°
2026-05-07 19:06 45.20697 -74.41404 39846 ft 443 kts 227°
2026-05-07 19:06 45.14020 -74.50450 39842 ft 442 kts 227°
2026-05-07 19:07 45.09569 -74.56465 39860 ft 442 kts 227°
2026-05-07 19:07 45.05113 -74.62471 39868 ft 442 kts 227°
2026-05-07 19:08 45.01432 -74.67422 39874 ft 442 kts 227°
2026-05-07 19:08 44.96958 -74.73426 39871 ft 441 kts 227°
2026-05-07 19:09 44.92505 -74.79390 39875 ft 441 kts 227°
2026-05-07 19:09 44.88057 -74.85334 39876 ft 440 kts 226°
2026-05-07 19:10 44.83600 -74.91277 39877 ft 440 kts 226°
2026-05-07 19:10 44.79151 -74.97194 39876 ft 440 kts 226°
2026-05-07 19:11 44.74701 -75.03102 39878 ft 440 kts 226°
2026-05-07 19:11 44.70249 -75.08998 39879 ft 439 kts 226°
2026-05-07 19:12 44.65791 -75.14889 39876 ft 439 kts 226°
2026-05-07 19:12 44.61359 -75.20733 39871 ft 439 kts 226°
2026-05-07 19:13 44.56905 -75.26593 39862 ft 439 kts 226°
2026-05-07 19:13 44.52441 -75.32453 39863 ft 439 kts 226°
2026-05-07 19:14 44.47978 -75.38298 39863 ft 439 kts 226°
2026-05-07 19:14 44.43519 -75.44126 39866 ft 438 kts 226°
2026-05-07 19:15 44.39059 -75.49944 39869 ft 438 kts 226°
2026-05-07 19:15 44.34619 -75.55721 39873 ft 438 kts 226°
2026-05-07 19:16 44.30153 -75.61520 39874 ft 438 kts 226°
2026-05-07 19:16 44.25678 -75.67318 39875 ft 438 kts 226°
2026-05-07 19:17 44.21210 -75.73095 39879 ft 438 kts 226°
2026-05-07 19:17 44.16734 -75.78869 39879 ft 438 kts 226°
2026-05-07 19:18 44.12252 -75.84639 39876 ft 438 kts 226°
2026-05-07 19:18 44.07776 -75.90387 39920 ft 438 kts 226°
2026-05-07 19:19 44.03288 -75.96139 39923 ft 438 kts 226°
2026-05-07 19:19 43.98810 -76.01867 39922 ft 438 kts 226°
2026-05-07 19:20 43.94012 -76.07119 39923 ft 446 kts 214°
2026-05-07 19:20 43.88441 -76.10985 39928 ft 449 kts 212°
2026-05-07 19:21 43.82818 -76.14748 39929 ft 449 kts 212°
2026-05-07 19:21 43.77227 -76.18476 39927 ft 449 kts 212°
2026-05-07 19:22 43.71604 -76.22218 39934 ft 448 kts 212°
2026-05-07 19:22 43.65984 -76.25950 39936 ft 448 kts 212°
2026-05-07 19:23 43.60367 -76.29671 39940 ft 447 kts 212°
2026-05-07 19:23 43.54751 -76.33385 39941 ft 447 kts 212°
2026-05-07 19:24 43.49139 -76.37088 39940 ft 446 kts 212°
2026-05-07 19:24 43.43569 -76.40756 39942 ft 446 kts 212°
2026-05-07 19:25 43.37969 -76.44436 39941 ft 446 kts 212°
2026-05-07 19:25 43.32377 -76.48103 39941 ft 445 kts 212°
2026-05-07 19:26 43.26780 -76.51766 39938 ft 445 kts 212°
2026-05-07 19:26 43.21181 -76.55423 39939 ft 444 kts 212°
2026-05-07 19:27 43.15596 -76.59063 39934 ft 444 kts 212°
2026-05-07 19:27 43.10026 -76.62686 39933 ft 443 kts 212°
2026-05-07 19:28 43.04459 -76.66300 39934 ft 442 kts 212°
2026-05-07 19:28 42.98899 -76.69902 39925 ft 442 kts 212°
2026-05-07 19:29 42.93347 -76.73492 39928 ft 441 kts 212°
2026-05-07 19:29 42.87830 -76.77052 39928 ft 441 kts 212°
2026-05-07 19:30 42.82284 -76.80623 39922 ft 441 kts 212°
2026-05-07 19:30 42.76743 -76.84184 39923 ft 441 kts 212°
2026-05-07 19:31 42.71199 -76.87741 39923 ft 441 kts 212°
2026-05-07 19:31 42.65656 -76.91289 39922 ft 441 kts 212°
2026-05-07 19:32 42.60103 -76.94836 39921 ft 440 kts 212°
2026-05-07 19:32 42.54559 -76.98371 39921 ft 440 kts 212°
2026-05-07 19:33 42.49022 -77.01894 39919 ft 439 kts 212°
2026-05-07 19:33 42.43489 -77.05408 39917 ft 439 kts 212°
2026-05-07 19:34 42.37999 -77.08888 39914 ft 438 kts 212°
2026-05-07 19:34 42.32480 -77.12380 39904 ft 438 kts 212°
2026-05-07 19:35 42.26965 -77.15862 39900 ft 437 kts 212°
2026-05-07 19:35 42.21455 -77.19334 39900 ft 437 kts 212°
2026-05-07 19:36 42.15949 -77.22797 39902 ft 436 kts 212°
2026-05-07 19:36 42.10450 -77.26249 39903 ft 436 kts 212°
2026-05-07 19:37 42.04953 -77.29693 39902 ft 435 kts 212°
2026-05-07 19:37 41.99472 -77.33121 39907 ft 434 kts 212°
2026-05-07 19:38 41.93988 -77.36544 39903 ft 434 kts 212°
2026-05-07 19:38 41.88541 -77.39937 39903 ft 434 kts 212°
2026-05-07 19:39 41.83066 -77.43341 39897 ft 433 kts 212°
2026-05-07 19:39 41.77585 -77.46743 39893 ft 433 kts 212°
2026-05-07 19:40 41.72122 -77.50127 39890 ft 433 kts 212°
2026-05-07 19:40 41.66659 -77.53505 39898 ft 432 kts 212°
2026-05-07 19:41 41.61194 -77.56878 39897 ft 432 kts 212°
2026-05-07 19:41 41.55773 -77.60217 39887 ft 431 kts 212°
2026-05-07 19:42 41.50286 -77.63590 39886 ft 431 kts 212°
2026-05-07 19:42 41.44875 -77.66911 39890 ft 431 kts 212°
2026-05-07 19:43 41.39427 -77.70247 39881 ft 430 kts 212°
2026-05-07 19:43 41.33988 -77.73573 39883 ft 430 kts 212°
2026-05-07 19:44 41.28550 -77.76892 39881 ft 430 kts 212°
2026-05-07 19:44 41.23113 -77.80204 39699 ft 430 kts 212°
2026-05-07 19:45 41.20397 -77.81855 39468 ft 429 kts 212°
2026-05-07 19:45 41.17683 -77.83504 39244 ft 429 kts 212°
2026-05-07 19:45 41.14974 -77.85150 39021 ft 428 kts 212°
2026-05-07 19:45 41.12260 -77.86796 38803 ft 428 kts 212°
2026-05-07 19:46 41.09549 -77.88439 38584 ft 428 kts 212°
2026-05-07 19:46 41.06874 -77.90059 38314 ft 428 kts 212°
2026-05-07 19:46 41.04141 -77.91712 38043 ft 428 kts 213°
2026-05-07 19:46 41.01465 -77.93330 37785 ft 428 kts 213°
2026-05-07 19:47 40.98759 -77.94964 37508 ft 427 kts 213°
2026-05-07 19:47 40.96042 -77.96559 36888 ft 429 kts 211°
2026-05-07 19:47 40.93144 -77.97760 36109 ft 442 kts 202°
2026-05-07 19:47 40.90046 -77.98244 35328 ft 459 kts 192°
2026-05-07 19:48 40.86782 -77.97910 34507 ft 479 kts 181°
2026-05-07 19:48 40.83486 -77.96984 33599 ft 488 kts 178°
2026-05-07 19:48 40.80160 -77.95960 32559 ft 491 kts 178°
2026-05-07 19:48 40.76822 -77.94945 31551 ft 493 kts 178°
2026-05-07 19:49 40.73509 -77.93952 30567 ft 494 kts 178°
2026-05-07 19:49 40.70149 -77.92952 29664 ft 494 kts 177°
2026-05-07 19:49 40.66809 -77.91959 28840 ft 490 kts 177°
2026-05-07 19:49 40.63503 -77.90979 28078 ft 485 kts 177°
2026-05-07 19:50 40.60221 -77.90010 27306 ft 480 kts 177°
2026-05-07 19:50 40.56969 -77.89054 26551 ft 476 kts 177°
2026-05-07 19:50 40.53752 -77.88109 25809 ft 472 kts 177°
2026-05-07 19:50 40.50558 -77.87174 25180 ft 467 kts 177°
2026-05-07 19:51 40.47401 -77.86251 24527 ft 462 kts 177°
2026-05-07 19:51 40.44288 -77.85339 23890 ft 457 kts 177°
2026-05-07 19:51 40.41201 -77.84435 23214 ft 452 kts 177°
2026-05-07 19:51 40.38145 -77.83544 22531 ft 446 kts 177°
2026-05-07 19:52 40.35147 -77.82670 21905 ft 439 kts 177°
2026-05-07 19:52 40.32193 -77.81809 21281 ft 432 kts 177°
2026-05-07 19:52 40.29276 -77.80962 20655 ft 426 kts 177°
2026-05-07 19:52 40.26400 -77.80125 20031 ft 421 kts 177°
2026-05-07 19:53 40.23554 -77.79300 19399 ft 416 kts 177°
2026-05-07 19:53 40.20745 -77.78487 18791 ft 412 kts 176°
2026-05-07 19:53 40.17961 -77.77681 18161 ft 408 kts 176°
2026-05-07 19:53 40.15211 -77.76884 17477 ft 403 kts 176°
2026-05-07 19:54 40.13401 -77.76359 17067 ft 399 kts 176°
2026-05-07 19:54 40.09843 -77.75331 16241 ft 393 kts 176°
2026-05-07 19:54 40.07182 -77.74567 15623 ft 388 kts 176°
2026-05-07 19:54 40.04553 -77.73812 14993 ft 384 kts 175°
2026-05-07 19:55 40.02832 -77.73311 14601 ft 381 kts 175°
2026-05-07 19:55 40.00255 -77.72566 13997 ft 378 kts 175°
2026-05-07 19:55 39.97700 -77.71832 13360 ft 374 kts 175°
2026-05-07 19:55 39.95166 -77.71105 12742 ft 371 kts 175°
2026-05-07 19:56 39.92653 -77.70386 12145 ft 368 kts 174°
2026-05-07 19:56 39.90162 -77.69672 11668 ft 364 kts 174°
2026-05-07 19:56 39.87738 -77.68969 11495 ft 349 kts 174°
2026-05-07 19:56 39.85407 -77.68292 11284 ft 336 kts 174°
2026-05-07 19:57 39.83162 -77.67646 11061 ft 325 kts 174°
2026-05-07 19:57 39.80990 -77.67024 10829 ft 315 kts 174°
2026-05-07 19:57 39.78884 -77.66418 10600 ft 306 kts 174°
2026-05-07 19:57 39.76831 -77.65833 10348 ft 298 kts 175°
2026-05-07 19:58 39.74824 -77.65261 10096 ft 294 kts 175°
2026-05-07 19:58 39.72817 -77.64714 9783 ft 294 kts 176°
2026-05-07 19:58 39.70817 -77.64261 9430 ft 291 kts 177°
2026-05-07 19:58 39.68820 -77.63825 9171 ft 291 kts 177°
2026-05-07 19:59 39.66824 -77.63381 8912 ft 290 kts 176°
2026-05-07 19:59 39.64837 -77.62931 8672 ft 290 kts 176°
2026-05-07 19:59 39.62876 -77.62485 8419 ft 289 kts 176°
2026-05-07 19:59 39.60905 -77.62036 8170 ft 288 kts 175°
2026-05-07 20:00 39.58934 -77.61585 7912 ft 286 kts 175°
2026-05-07 20:00 39.56974 -77.61134 7675 ft 285 kts 174°
2026-05-07 20:00 39.55021 -77.60685 7437 ft 285 kts 174°
2026-05-07 20:00 39.53072 -77.60234 7183 ft 283 kts 173°
2026-05-07 20:01 39.51148 -77.59697 7042 ft 286 kts 165°
2026-05-07 20:01 39.49381 -77.58490 6905 ft 288 kts 146°
2026-05-07 20:01 39.47781 -77.56915 6790 ft 288 kts 143°
2026-05-07 20:01 39.46203 -77.55323 6662 ft 287 kts 143°
2026-05-07 20:02 39.44622 -77.53742 6540 ft 286 kts 143°
2026-05-07 20:02 39.43049 -77.52182 6422 ft 285 kts 143°
2026-05-07 20:02 39.41474 -77.50627 6295 ft 284 kts 143°
2026-05-07 20:02 39.39904 -77.49079 6163 ft 284 kts 143°
2026-05-07 20:03 39.38330 -77.47533 6039 ft 283 kts 143°
2026-05-07 20:03 39.36767 -77.45994 5902 ft 282 kts 143°
2026-05-07 20:03 39.35209 -77.44462 5771 ft 282 kts 143°
2026-05-07 20:03 39.33652 -77.42933 5647 ft 281 kts 143°
2026-05-07 20:04 39.32097 -77.41411 5506 ft 280 kts 143°
2026-05-07 20:04 39.30562 -77.39905 5391 ft 280 kts 143°
2026-05-07 20:04 39.29011 -77.38384 5262 ft 279 kts 143°
2026-05-07 20:04 39.27478 -77.36926 5122 ft 279 kts 146°
2026-05-07 20:05 39.25701 -77.35996 5018 ft 276 kts 172°
2026-05-07 20:05 39.23795 -77.35852 4886 ft 274 kts 181°
2026-05-07 20:05 39.21896 -77.35846 4754 ft 274 kts 181°
2026-05-07 20:05 39.19981 -77.35827 4644 ft 274 kts 181°
2026-05-07 20:06 39.18501 -77.35803 4529 ft 274 kts 180°
2026-05-07 20:06 39.16600 -77.35764 4400 ft 273 kts 180°
2026-05-07 20:06 39.14705 -77.35742 4268 ft 272 kts 181°
2026-05-07 20:06 39.12808 -77.35735 4218 ft 272 kts 181°
2026-05-07 20:07 39.10912 -77.35737 4194 ft 272 kts 181°
2026-05-07 20:07 39.09015 -77.35740 4174 ft 272 kts 181°
2026-05-07 20:07 39.07123 -77.35733 4120 ft 272 kts 181°
2026-05-07 20:07 39.05231 -77.35727 4096 ft 272 kts 181°
2026-05-07 20:08 39.03336 -77.35729 4081 ft 272 kts 181°
2026-05-07 20:08 39.01445 -77.35732 4034 ft 271 kts 181°
2026-05-07 20:08 38.99576 -77.35725 4019 ft 272 kts 181°
2026-05-07 20:08 38.97668 -77.35722 3984 ft 272 kts 181°
2026-05-07 20:09 38.95775 -77.35722 3957 ft 272 kts 181°
2026-05-07 20:09 38.93911 -77.35716 3940 ft 272 kts 181°
2026-05-07 20:09 38.91998 -77.35711 3917 ft 271 kts 180°
2026-05-07 20:10 38.88249 -77.35735 3823 ft 271 kts 182°
2026-05-07 20:10 38.86345 -77.35787 3779 ft 271 kts 182°
2026-05-07 20:10 38.84491 -77.35831 3683 ft 268 kts 182°
2026-05-07 20:10 38.82664 -77.35869 3566 ft 257 kts 182°
2026-05-07 20:11 38.80888 -77.35910 3462 ft 248 kts 182°
2026-05-07 20:11 38.79214 -77.35948 3320 ft 239 kts 182°
2026-05-07 20:11 38.77589 -77.36056 3178 ft 230 kts 190°
2026-05-07 20:11 38.76209 -77.36889 3127 ft 214 kts 224°
2026-05-07 20:12 38.75463 -77.38456 3125 ft 207 kts 258°
2026-05-07 20:12 38.75485 -77.40269 3105 ft 204 kts 284°
2026-05-07 20:12 38.75920 -77.41982 3019 ft 197 kts 295°
2026-05-07 20:12 38.76550 -77.43502 3015 ft 192 kts 309°
2026-05-07 20:13 38.77688 -77.44292 3030 ft 190 kts 354°
2026-05-07 20:13 38.78983 -77.44124 3004 ft 182 kts
2026-05-07 20:13 38.80223 -77.43897 2785 ft 179 kts
2026-05-07 20:13 38.81436 -77.43804 2534 ft 171 kts
2026-05-07 20:14 38.82598 -77.43793 2306 ft 163 kts 359°
2026-05-07 20:14 38.83707 -77.43780 2055 ft 155 kts
2026-05-07 20:14 38.84760 -77.43761 1841 ft 148 kts 360°
2026-05-07 20:14 38.85762 -77.43744 1635 ft 138 kts 359°
2026-05-07 20:15 38.86705 -77.43731 1454 ft 133 kts
2026-05-07 20:15 38.87632 -77.43716 1278 ft 134 kts 360°
2026-05-07 20:15 38.88557 -77.43703 1090 ft 132 kts
2026-05-07 20:15 38.89464 -77.43689 920 ft 132 kts
2026-05-07 20:16 38.90399 -77.43674 738 ft 132 kts
2026-05-07 20:16 38.91320 -77.43663 573 ft 133 kts
2026-05-07 20:16 38.92243 -77.43651 383 ft 133 kts
2026-05-07 20:16 38.93134 -77.43637 309 ft 122 kts
2026-05-07 20:17 38.93794 -77.43625 307 ft 56 kts
2026-05-07 20:17 38.94110 -77.43617 308 ft 43 kts
2026-05-07 20:17 38.94340 -77.43634 308 ft 18 kts 348°
2026-05-07 20:17 38.94456 -77.43687 310 ft 17 kts 333°
2026-05-07 20:18 38.94561 -77.43759 310 ft 17 kts 332°
2026-05-07 20:18 38.94634 -77.43840 310 ft 14 kts 292°
2026-05-07 20:18 38.94650 -77.43963 308 ft 14 kts 275°
2026-05-07 20:18 38.94652 -77.44074 309 ft 12 kts 271°
2026-05-07 20:19 38.94653 -77.44184 309 ft 14 kts 271°
2026-05-07 20:19 38.94654 -77.44306 310 ft 13 kts 271°
2026-05-07 20:19 38.94655 -77.44432 310 ft 15 kts 270°
2026-05-07 20:19 38.94657 -77.44564 307 ft 16 kts 271°
2026-05-07 20:20 38.94658 -77.44684 307 ft 7 kts 271°
2026-05-07 20:20 38.94659 -77.44753 307 ft 9 kts 271°
2026-05-07 20:20 38.94659 -77.44842 307 ft 8 kts 271°
2026-05-07 20:20 38.94680 -77.44903 308 ft 9 kts 303°
2026-05-07 20:21 38.94716 -77.44949 308 ft 7 kts 335°
2026-05-07 20:21 38.94744 -77.44951 308 ft 5 kts
2026-05-07 20:21 38.94770 -77.44944 308 ft 3 kts 14°
2026-05-07 20:21 38.94789 -77.44937 308 ft 1 kts 15°
2026-05-07 20:22 38.94798 -77.44934 308 ft 0 kts 15°
2026-05-07 20:22 38.94803 -77.44932 308 ft 1 kts 15°
2026-05-07 20:22 38.94805 -77.44931 308 ft 0 kts 15°